Wind from 031 at 7 knots gusting 18

Air temperature 25.6° C
Dewpoint 11.3° C

Last reported at 2014-Apr-19 21:34 UTC.
Time now 2014-Apr-19 22:08 UTC

Location: N 19°28' W 155°22'.
View on Google Maps.

See reports from other nearby stations

Tides Stations Pressure Air Temp Water Temp Dewpoint Dewpoint depression Visibility Wind Speed Wind Dir Waves Ship positions

  
sailing weather and tide predictions

KEAUMO HI US weather

date/time (UTC)wind fromknots sea level pressurealtimeterstation pressurevisibilityair tempwater tempwave heightnotes
2014-Apr-19 21:34 031 7 gusting 18 25.6
2014-Apr-19 20:34 028 8 gusting 16 24.4
2014-Apr-19 19:34 003 6 gusting 17 23.9
2014-Apr-19 18:34 009 7 gusting 13 21.1
2014-Apr-19 17:34 348 6 gusting 10 13.9
2014-Apr-19 16:34 013 5 gusting 13 13.3
2014-Apr-19 15:34 007 6 gusting 9 13.3
2014-Apr-19 14:34 12.8
2014-Apr-19 13:34 354 6 gusting 17 11.1
2014-Apr-19 12:34 025 6 gusting 16 13.3
2014-Apr-19 11:34 039 3 gusting 14 10.0
2014-Apr-19 10:34 284 6 gusting 16 12.8
2014-Apr-19 09:34 040 0 gusting 13 10.6
2014-Apr-19 08:34 003 2 gusting 13 10.0
2014-Apr-19 07:34 025 6 gusting 16 12.2
2014-Apr-19 06:34 336 6 gusting 18 12.2
2014-Apr-19 05:34 001 5 gusting 13 12.8
2014-Apr-19 04:34 024 7 gusting 18 13.9
2014-Apr-19 03:34 017 10 gusting 19 17.8
2014-Apr-19 02:34 026 11 gusting 18 18.9
2014-Apr-19 01:34 028 10 gusting 21 20.6
2014-Apr-19 00:34 024 11 gusting 19 21.1
2014-Apr-18 23:34 018 13 gusting 20 21.1
2014-Apr-18 22:34 022 11 gusting 19 20.0
2014-Apr-18 21:34 028 9 gusting 15 15.0
2014-Apr-18 20:34 017 8 gusting 15 18.3
2014-Apr-18 12:34 023 3 gusting 6 11.7
2014-Apr-18 11:34 354 3 gusting 7 11.1
2014-Apr-18 10:34 327 4 gusting 6 10.6
2014-Apr-18 09:34 330 4 gusting 6 9.4
2014-Apr-18 08:34 322 4 gusting 6 9.4
2014-Apr-18 07:34 338 2 gusting 5 10.6
2014-Apr-18 06:34 328 2 gusting 10 10.6
2014-Apr-18 05:34 028 6 gusting 9 11.7
2014-Apr-18 04:34 030 5 gusting 9 12.8
2014-Apr-18 03:34 065 4 gusting 12 18.3
2014-Apr-18 02:34 032 6 gusting 15 19.4
2014-Apr-18 01:34 031 6 gusting 14 19.4
2014-Apr-18 00:34 054 6 gusting 13 20.0
2014-Apr-17 23:34 037 6 gusting 13 21.7
2014-Apr-17 22:34 049 6 gusting 15 20.6